Location: Unspecified
(0.0000°N, 0.0000°E)
Time: 06:52:35
(UTC+00:00)

Transit 4A - Pass Details

Date: 12 October 2023
Orbit: 864 x 979 km, 66.8° (Epoch: 05 December)

Event Time Altitude Azimuth Distance (km) Brightness Sun altitude
Rises 17:53:27 0° 2° (N) 3,557 10.8 -1.7°
Reaches altitude 10° 17:56:24 10° 14° (NNE) 2,597 10.0 -2.5°
Maximum altitude 18:01:20 27° 70° (ENE) 1,670 8.7 -3.7°
Drops below altitude 10° 18:06:11 10° 125° (SE) 2,544 9.8 -4.9°
Sets 18:09:01 0° 137° (SE) 3,470 10.5 -5.6°
